Torna al catalogo

STARLINK-5096

AttivoComunicazioniVLEO
NORAD 54006·PAYLOAD·🇺🇸 United States

Lanciato Oct 5, 2022 da Vandenberg Space Force Base

Loading…

Prossimi Passaggi (prossime 24 ore)

TLE

AggiornatoSource: CelesTrak SupGP

Epoca: Sep 15, 2026, 01:33 UTC

1 54006C 22125AU  26258.06506944 -.00016730  00000+0 -53800-3 0  2589
2 54006  53.1594  74.2552 0001256  81.6054 219.1667 15.31710979    13

Traccia STARLINK-5096 in tempo reale con AllMySat

Download on the App Store